[[{"header":{"parameterUnit":"m.s-1","parameterCategory":1,"la1":30.2991,"la2":30.254,"lo1":-89.0895,"lo2":-89.0444,"dy":0.0017,"dx":0.0017,"nx":28,"ny":28,"refTime":"2026-02-08T03:00:00:Z","depth":0,"parameterNumber":2,"parameterNumberName":"U-component_of_WINDS"},"data":[0,0,0,0,0,0,0,0,0,0,0,0,0,0,0,0,0,0,0,0,0,0,0,0,0,0,0,0,0,0,0,0,0,0,0,0,0,0,0,0,0,0,0,0,0,0,0,0,0,0,0,0,0,0,0,0,0,0,-0.6672,-0.6672,0,-0.6655,-0.6655,-0.6655,-0.6573,-0.6571,-0.6569,-0.6567,-0.6551,-0.6552,-0.6553,0,0,0,0,0,0,0,0,0,0,0,0,0,-0.6635,-0.6636,-0.6672,-0.6672,-0.6672,-0.6655,-0.6655,-0.6655,-0.6573,-0.657,-0.6568,-0.6566,-0.655,-0.6552,-0.6553,0,0,0,0,0,0,0,0,0,0,0,0,0,-0.6638,-0.6636,-0.6672,-0.6629,-0.6625,-0.6655,-0.6655,-0.6655,-0.6573,-0.657,-0.6567,-0.6565,-0.655,-0.6552,-0.6554,-0.6625,0,0,-0.656,-0.6561,0,0,0,0,0,0,0,0,-0.6638,-0.6639,-0.6635,-0.6632,-0.6627,-0.6613,-0.6636,-0.6645,-0.6574,-0.6593,-0.6567,-0.6563,-0.6574,-0.6574,-0.6577,-0.6624,-0.6623,-0.656,-0.6561,-0.6562,-0.6563,0,0,0,0,0,0,0,-0.6638,-0.664,-0.6665,-0.6636,-0.6631,-0.6611,-0.6608,-0.6637,-0.66,-0.6591,-0.6585,-0.6584,-0.6571,-0.6575,-0.6576,-0.6623,-0.656,-0.6562,-0.6563,-0.6564,-0.6727,-0.673,0,0,0,0,0,0,-0.6643,-0.664,-0.6666,-0.6665,-0.6626,-0.6614,-0.6611,-0.6621,-0.6599,-0.6593,-0.6587,-0.658,-0.6573,-0.6574,-0.6575,-0.6656,-0.6562,-0.6564,-0.6565,-0.6724,-0.6728,-0.6731,0,0,0,0,0,0,-0.6643,-0.6647,-0.6667,-0.6651,-0.6652,-0.6617,-0.6629,-0.6622,-0.6626,-0.6596,-0.6589,-0.6598,-0.6571,-0.6572,-0.6613,-0.6655,-0.6565,-0.6567,-0.6721,-0.6725,-0.673,-0.682,0,0,0,0,0,0,-0.6642,-0.6647,-0.6673,-0.6652,-0.6653,-0.6705,-0.6632,-0.6624,-0.6629,-0.6621,-0.6604,-0.6599,-0.6569,-0.661,-0.6615,-0.6656,-0.6569,-0.6717,-0.6723,-0.6728,-0.6813,-0.6827,-0.6839,0,0,0,0,0,-0.6641,-0.67,-0.6675,-0.6679,-0.6685,-0.6707,-0.6708,-0.6671,-0.6633,-0.6659,-0.664,-0.6599,-0.665,-0.6615,-0.662,-0.6662,-0.6714,-0.6721,-0.6728,-0.6807,-0.6824,-0.6839,0,0,0,0,0,0,-0.6727,-0.6696,-0.6668,-0.6722,-0.6718,-0.6693,-0.6725,-0.6691,-0.6698,-0.669,-0.6645,-0.6642,-0.6689,-0.6679,-0.6642,-0.6729,-0.6675,-0.6683,-0.6734,-0.675,-0.6762,-0.6763,-0.657,0,0,0,0,0,-0.6753,-0.6773,-0.6744,-0.6794,-0.6794,-0.676,-0.6768,-0.6741,-0.6735,-0.6733,-0.6717,-0.6713,-0.6727,-0.6738,-0.675,-0.6812,-0.6807,-0.6843,-0.6856,-0.6867,-0.6874,-0.6906,-0.6921,-0.6754,-0.6754,-0.6754,0,0,-0.6805,-0.679,-0.6806,-0.6811,-0.6805,-0.6827,-0.6759,-0.6785,-0.6801,-0.6737,-0.6774,-0.6762,-0.6755,-0.6806,-0.6828,-0.68,-0.692,-0.6876,-0.6885,-0.6886,-0.6915,-0.693,-0.6945,-0.6759,-0.6758,-0.6757,0,0,-0.6911,-0.6902,-0.6942,-0.6937,-0.6928,-0.6906,-0.6916,-0.6896,-0.6886,-0.6922,-0.6874,-0.6893,-0.6919,-0.6916,-0.6918,-0.7023,-0.6986,-0.7029,-0.7096,-0.7127,-0.7141,-0.7152,-0.7189,-0.7203,-0.7036,-0.7036,-0.7037,0,-0.6977,-0.7008,-0.6968,-0.6997,-0.7001,-0.6943,-0.6983,-0.6981,-0.6976,-0.698,-0.6949,-0.6981,-0.6972,-0.7021,-0.7047,-0.7051,-0.706,-0.703,-0.7142,-0.7153,-0.7163,-0.7198,-0.7212,-0.7042,-0.7041,-0.704,-0.704,0,-0.7089,-0.7112,-0.7145,-0.7142,-0.7149,-0.7184,-0.715,-0.7162,-0.7134,-0.7115,-0.7153,-0.7141,-0.7149,-0.7159,-0.7132,-0.7205,-0.7187,-0.715,-0.7094,-0.7185,-0.7217,-0.723,-0.7049,-0.7047,-0.7046,-0.7044,0,0,-0.7249,-0.7223,-0.7236,-0.7233,-0.7219,-0.7236,-0.7268,-0.7276,-0.7287,-0.7287,-0.7312,-0.7336,-0.7301,-0.7303,-0.7276,-0.7303,-0.7387,-0.7262,-0.7261,-0.7285,-0.7466,-0.7494,-0.751,-0.7362,-0.7365,-0.7367,-0.7466,0,-0.735,-0.7403,-0.7368,-0.7426,-0.7446,-0.7392,-0.742,-0.7415,-0.7398,-0.7413,-0.7394,-0.7411,-0.7364,-0.7365,-0.739,-0.7372,-0.7422,-0.7364,-0.7386,-0.7387,-0.7388,-0.7526,-0.7556,-0.765,-0.7479,-0.7481,-0.7482,0,-0.7474,-0.7478,-0.7539,-0.752,-0.7527,-0.7553,-0.7557,-0.7572,-0.7565,-0.7551,-0.7554,-0.7519,-0.7549,-0.7495,-0.7537,-0.7498,-0.7505,-0.7497,-0.75,-0.75,-0.744,-0.753,-0.768,-0.7694,-0.7502,-0.75,-0.7499,0,-0.7584,-0.7604,-0.7643,-0.7643,-0.7622,-0.7642,-0.7634,-0.7624,-0.7631,-0.7635,-0.7639,-0.7647,-0.7651,-0.7658,-0.7626,-0.759,-0.7672,-0.7615,-0.7661,-0.7662,-0.768,-0.7679,-0.7833,-0.7687,-0.7686,-0.7686,-0.7686,0,-0.77,-0.7739,-0.7692,-0.7716,-0.7758,-0.7717,-0.7761,-0.7747,-0.7739,-0.776,-0.7714,-0.7734,-0.7691,-0.7708,-0.7683,-0.7721,-0.7724,-0.7713,-0.7706,-0.7717,-0.7718,-0.772,-0.7713,-0.769,-0.7689,-0.7688,-0.7688,0,-0.7828,-0.7799,-0.7837,-0.7815,-0.781,-0.7842,-0.7823,-0.7844,-0.7824,-0.7851,-0.7855,-0.7824,-0.7841,-0.781,-0.7823,-0.7807,-0.786,-0.7843,-0.7862,-0.7857,-0.7904,-0.79,-0.8064,-0.8083,-0.7925,-0.7927,-0.7928,0,-0.7904,-0.7932,-0.7913,-0.7923,-0.7918,-0.7935,-0.7941,-0.7903,-0.7912,-0.7906,-0.7928,-0.7941,-0.7949,-0.7978,-0.7957,-0.7967,-0.7949,-0.8006,-0.795,-0.796,-0.7949,-0.7948,-0.795,-0.8017,-0.8019,-0.8021,-0.8022,0,-0.8041,-0.8024,-0.8035,-0.8041,-0.805,-0.8053,-0.8052,-0.8064,-0.8023,-0.8035,-0.8051,-0.8057,-0.807,-0.8084,-0.8088,-0.8081,-0.8045,-0.804,-0.8051,-0.8062,-0.8071,-0.8066,-0.7892,-0.8036,-0.8035,-0.8034,-0.8033,-0.8032,-0.8144,-0.8167,-0.8157,-0.817,-0.8166,-0.8166,-0.8185,-0.8167,-0.818,-0.8187,-0.8164,-0.8185,-0.8178,-0.818,-0.8177,-0.8193,-0.8168,-0.8184,-0.8188,-0.8193,-0.82,-0.807,-0.8194,-0.8194,-0.8193,-0.8193,-0.8193,0,-0.8278,-0.8268,-0.8281,-0.8282,-0.8293,-0.8258,-0.8255,-0.8267,-0.8286,-0.8282,-0.829,-0.8309,-0.8322,-0.8302,-0.8311,-0.8328,-0.8312,-0.8332,-0.833,-0.8329,-0.8222,-0.8211,-0.8345,-0.8345,-0.8345,-0.8345,-0.8345,-0.8345,-0.8349,-0.8385,-0.8368,-0.8401,-0.8392,-0.8412,-0.8414,-0.8414,-0.841,-0.8433,-0.8443,-0.843,-0.8419,-0.8427,-0.8438,-0.8431,-0.8437,-0.8462,-0.8451,-0.8351,-0.8336,-0.8322,-0.8312,-0.8464,-0.8464,-0.8556,-0.8556,-0.8557]},{"header":{"parameterUnit":"m.s-1","parameterCategory":1,"la1":30.2991,"la2":30.254,"lo1":-89.0895,"lo2":-89.0444,"dy":0.0017,"dx":0.0017,"nx":28,"ny":28,"refTime":"2026-02-08T03:00:00:Z","depth":0,"parameterNumber":3,"parameterNumberName":"V-component_of_WINDS"},"data":[0,0,0,0,0,0,0,0,0,0,0,0,0,0,0,0,0,0,0,0,0,0,0,0,0,0,0,0,0,0,0,0,0,0,0,0,0,0,0,0,0,0,0,0,0,0,0,0,0,0,0,0,0,0,0,0,0,0,1.061,1.061,0,1.0552,1.0551,1.055,1.0626,1.0629,1.0631,1.0634,1.0571,1.0567,1.0563,0,0,0,0,0,0,0,0,0,0,0,0,0,1.0787,1.0783,1.061,1.061,1.0609,1.0552,1.0551,1.055,1.0625,1.0629,1.0632,1.0635,1.0573,1.0568,1.0563,0,0,0,0,0,0,0,0,0,0,0,0,0,1.0717,1.0782,1.0611,1.064,1.0642,1.0552,1.0551,1.055,1.0625,1.0629,1.0633,1.0637,1.0574,1.0568,1.0562,1.044,0,0,1.0543,1.054,0,0,0,0,0,0,0,0,1.0721,1.0711,1.0636,1.0638,1.064,1.06,1.059,1.0513,1.0624,1.0631,1.0634,1.0639,1.0578,1.0571,1.0551,1.0437,1.0435,1.0542,1.0538,1.0536,1.0534,0,0,0,0,0,0,0,1.0726,1.0714,1.0587,1.0635,1.0637,1.0655,1.065,1.0576,1.0582,1.0631,1.0636,1.0628,1.0579,1.0557,1.055,1.0434,1.0542,1.0537,1.0533,1.053,1.0219,1.0215,0,0,0,0,0,0,1.0727,1.0717,1.0589,1.0585,1.0691,1.0649,1.0643,1.0609,1.0583,1.0583,1.0625,1.0632,1.0566,1.0557,1.0548,1.0405,1.0536,1.053,1.0526,1.0223,1.0218,1.0213,0,0,0,0,0,0,1.0731,1.0715,1.0591,1.0653,1.0638,1.0641,1.0602,1.0605,1.0583,1.0578,1.058,1.0601,1.0569,1.0557,1.0467,1.0404,1.0527,1.0521,1.0228,1.0222,1.0215,1.0116,0,0,0,0,0,0,1.0736,1.0716,1.067,1.0651,1.0635,1.0511,1.0599,1.0601,1.0572,1.0581,1.0556,1.0556,1.0571,1.0476,1.0461,1.0397,1.0516,1.0234,1.0225,1.0218,1.0125,1.0107,1.0091,0,0,0,0,0,1.0742,1.0643,1.0667,1.0651,1.0577,1.0507,1.0498,1.0518,1.0567,1.052,1.0518,1.0557,1.0413,1.0466,1.045,1.0383,1.0238,1.0228,1.0218,1.0133,1.011,1.0092,0,0,0,0,0,0,1.0653,1.0641,1.0667,1.056,1.0534,1.052,1.0462,1.0493,1.0452,1.0462,1.0488,1.0482,1.0386,1.0376,1.0435,1.0265,1.0334,1.032,1.0275,1.0253,1.0237,1.0241,1.0511,0,0,0,0,0,1.0621,1.0566,1.0559,1.0464,1.045,1.0458,1.0428,1.0446,1.042,1.0409,1.04,1.0372,1.0322,1.0287,1.024,1.0125,1.0121,1.0071,1.0054,1.004,1.0027,0.9967,0.9945,1.018,1.018,1.018,0,0,1.0554,1.0541,1.0504,1.0446,1.0428,1.037,1.0448,1.0383,1.0341,1.0399,1.0314,1.0306,1.0277,1.0174,1.0129,1.0163,0.9962,1.0027,1.0016,1.0011,0.9954,0.9932,0.9912,1.0173,1.0174,1.0176,0,0,1.0403,1.0387,1.0308,1.0289,1.0261,1.0268,1.0248,1.023,1.0227,1.0142,1.0186,1.0135,1.0046,1.0025,1.0002,0.9845,0.9879,0.9829,0.974,0.9681,0.9662,0.9646,0.959,0.957,0.9816,0.9816,0.9816,0,1.0323,1.0238,1.0263,1.0195,1.0169,1.0221,1.0141,1.0121,1.0078,1.0059,1.0099,0.999,0.9974,0.9867,0.9829,0.9809,0.9788,0.9831,0.9663,0.9647,0.9632,0.9579,0.9558,0.981,0.9811,0.9811,0.9812,0,1.0141,1.0081,1.002,0.998,0.9947,0.9873,0.9887,0.9851,0.9872,0.9874,0.9788,0.9771,0.9722,0.9698,0.9717,0.9594,0.9617,0.9659,0.9729,0.9603,0.9554,0.9534,0.9801,0.9804,0.9805,0.9807,0,0,0.993,0.9906,0.9883,0.9866,0.9841,0.9795,0.9724,0.9677,0.9646,0.9615,0.9557,0.9482,0.9521,0.9496,0.9513,0.9461,0.9339,0.951,0.951,0.9479,0.9203,0.9171,0.9147,0.9362,0.9359,0.9356,0.9206,0,0.9779,0.9657,0.9679,0.956,0.9506,0.9556,0.9494,0.9472,0.9473,0.9427,0.9427,0.9374,0.943,0.9415,0.9366,0.9364,0.9284,0.9375,0.9308,0.9305,0.9313,0.9121,0.9087,0.8946,0.9186,0.9183,0.9181,0,0.9585,0.955,0.9426,0.9411,0.9389,0.9333,0.9293,0.9248,0.9225,0.9229,0.9201,0.9229,0.9159,0.9231,0.9135,0.9197,0.9171,0.9166,0.9161,0.9155,0.9235,0.911,0.8901,0.888,0.9151,0.9153,0.9155,0,0.9444,0.9365,0.9281,0.9265,0.9245,0.9205,0.9195,0.9175,0.9146,0.9111,0.9093,0.9049,0.9025,0.8991,0.9007,0.9058,0.8908,0.8981,0.891,0.8909,0.8875,0.8877,0.8659,0.8859,0.8859,0.8859,0.886,0,0.9273,0.9195,0.9218,0.9166,0.9081,0.9107,0.9022,0.9018,0.9001,0.8949,0.899,0.894,0.8965,0.8917,0.8929,0.8848,0.8837,0.8839,0.8843,0.8835,0.8834,0.8817,0.8827,0.8854,0.8855,0.8856,0.8857,0,0.91,0.9112,0.9024,0.9013,0.9009,0.8947,0.8937,0.8889,0.8894,0.8829,0.8815,0.8822,0.8768,0.8781,0.8722,0.8731,0.8629,0.8645,0.8637,0.8641,0.8569,0.8575,0.8332,0.8302,0.8521,0.8519,0.8517,0,0.8989,0.8931,0.8915,0.8884,0.8871,0.882,0.8791,0.8815,0.8783,0.8753,0.8709,0.8659,0.8621,0.8533,0.8533,0.8489,0.8504,0.8422,0.8498,0.8492,0.8503,0.8506,0.8501,0.8407,0.8404,0.8402,0.8401,0,0.8792,0.8801,0.8759,0.8718,0.8683,0.8652,0.8625,0.8597,0.8619,0.8582,0.8529,0.8499,0.844,0.839,0.835,0.834,0.8373,0.8377,0.8358,0.8349,0.8347,0.8347,0.8596,0.8382,0.8384,0.8385,0.8386,0.8387,0.8647,0.8598,0.8579,0.8531,0.8513,0.8488,0.8442,0.8443,0.8399,0.8353,0.837,0.8309,0.8289,0.8238,0.8223,0.8176,0.8207,0.8179,0.8172,0.8165,0.8156,0.8355,0.8168,0.8169,0.8169,0.817,0.817,0,0.8451,0.8443,0.8398,0.836,0.8322,0.8359,0.8331,0.8297,0.8243,0.8221,0.8183,0.8123,0.8075,0.8072,0.8028,0.7991,0.8005,0.7978,0.7981,0.7978,0.8131,0.8151,0.7968,0.7968,0.7968,0.7968,0.7968,0.7968,0.8345,0.8265,0.8273,0.8185,0.8176,0.8118,0.8099,0.8076,0.8059,0.7989,0.7951,0.795,0.7936,0.7891,0.785,0.785,0.7832,0.7799,0.7805,0.7947,0.7967,0.7987,0.8006,0.7795,0.7795,0.7657,0.7656,0.7655]}]]